Hourly Data Report for July 03, 2021

MANIWAKI AIRPORT
QUEBEC
Current Station Operator: ECCC - MSC

46°16'29.000" N
75°59'31.000" W
199.70 m
7034482
71721
WMJ

Download Data

Hourly Data (July 2021)
Hourly Data Report for July 3, 2021
TIME
LST
Temp Definition
°C
Dew Point Definition
°C
Rel Hum Definition
%
Precip. Amount Definition
mm

Wind Dir Definition
10's deg

Wind Spd Definition
km/h
Visibility Definition
km
Stn Press Definition
kPa
Hmdx Definition


Wind Chill Definition


Weather Definition


00:00 13.0 12.7 98 0.0 19 6   98.86     LegendNANA
01:00 13.5 13.0 97 0.0 18 1   98.82     LegendNANA
02:00 13.9 13.5 97 0.0 4 2   98.85     LegendNANA
03:00 14.0 13.6 97 0.0 3 3   98.85     LegendNANA
04:00 13.9 13.6 98 0.0   0   98.82     LegendNANA
05:00 14.4 12.5 88 0.0 13 6   98.85     LegendNANA
06:00 15.1 12.4 84 0.0 8 1   98.87     LegendNANA
07:00 15.4 12.0 81 0.0 16 7   98.83     LegendNANA
08:00 16.5 12.1 75 0.0 12 4   98.84     LegendNANA
09:00 18.7 11.9 65 0.0 33 3   98.82     LegendNANA
10:00 19.6 9.6 52 0.0 36 8   98.84     LegendNANA
11:00 20.2 11.1 56 0.0 11 9   98.76     LegendNANA
12:00 21.2 11.1 52 0.0 16 8   98.72     LegendNANA
13:00 21.8 11.3 51 0.0 7 7   98.67     LegendNANA
14:00 22.7 11.4 49 0.0 5 8   98.66 25   LegendNANA
15:00 22.0 10.4 48 0.0 8 9   98.63     LegendNANA
16:00 23.5 11.1 46 0.0 9 10   98.62 25   LegendNANA
17:00 23.1 9.9 43 0.0 7 6   98.60     LegendNANA
18:00 22.3 9.8 45 0.0 9 9   98.65     LegendNANA
19:00 21.4 10.5 50 0.0 7 4   98.69     LegendNANA
20:00 16.8 12.1 74 0.0 10 4   98.74     LegendNANA
21:00 13.6 11.2 85 0.0 1 4   98.82     LegendNANA
22:00 14.7 12.2 85 0.0 17 6   98.85     LegendNANA
23:00 13.1 11.7 91 0.0   0   98.89     LegendNANA

Notes on Data Quality.

Legend

  • E = Estimated
  • M = Missing
  • NA = Not Available*
  • [empty] = Indicates an unobserved value
Date modified: